Temp
36 35 34 34 33 33 33 32 31 30 27 26 25 25 25 25 25 25 25 25 26 25 24 24 23 22 22 21 21 21 21 22 21
36 36 35 35 34 34 33 33 31 31 28 26 26 25 25 25 25 25 25 25 25 25 24 24 22 21 21 21 21 21 21 21 21
36 36 35 35 35 33 33 33 33 31 30 27 26 26 25 25 25 25 26 25 25 24 24 24 24 22 21 21 21 20 20 20 21
34 35 34 36 33 33 34 35 34 32 31 28 27 27 27 26 26 26 26 25 24 24 24 23 23 22 22 21 21 21 20 20 21
34 34 34 33 32 33 33 34 33 33 30 29 28 28 28 27 27 27 26 25 24 24 23 23 22 22 22 22 21 21 21 21 22
34 34 33 32 31 30 30 32 33 32 32 31 29 29 28 28 27 27 27 26 24 24 23 23 23 23 22 22 22 21 21 21 22
32 32 32 31 31 29 30 31 31 31 31 31 30 29 28 28 27 27 26 26 25 24 24 23 23 23 23 22 22 22 22 22 22
33 33 33 31 29 29 27 29 30 31 31 31 30 29 29 28 27 27 26 25 25 25 24 24 24 23 23 23 22 22 22 22 22
33 32 33 32 30 29 28 28 29 30 30 30 30 29 29 28 27 26 26 25 25 25 24 24 24 23 23 23 23 23 23 23 23
33 33 32 31 30 30 29 28 30 29 30 30 29 29 29 28 27 26 26 25 25 25 24 24 24 24 24 23 23 23 24 24 23
32 31 30 31 31 29 30 30 30 30 29 29 29 28 28 27 27 26 26 25 25 25 24 25 24 24 24 24 24 24 24 24 23
30 31 30 31 33 32 31 30 30 30 29 28 28 27 27 26 26 26 26 25 25 25 24 24 25 25 24 24 24 24 24 24 23
30 30 31 30 31 31 31 30 30 29 28 28 27 27 27 26 26 25 25 25 25 25 25 25 25 24 24 24 24 24 24 24 24
29 29 29 30 29 28 28 30 30 29 28 27 28 27 27 26 26 25 25 25 25 25 25 24 24 24 25 24 24 23 23 23 23
28 27 28 28 26 25 26 27 28 26 26 28 28 28 27 26 26 25 25 25 25 24 23 22 22 22 22 22 21 24 23 23 23
27 26 27 27 25 25 25 25 25 24 24 25 26 27 27 26 26 25 25 24 23 21 22 22 21 21 22 21 21 20 22 23 23
26 26 26 28 25 24 24 24 24 24 24 24 24 24 25 24 24 24 23 23 21 21 20 21 21 20 20 20 21 20 20 22 21
24 25 26 26 25 24 24 24 23 23 23 23 23 23 23 23 23 22 21 21 21 20 20 20 20 20 21 21 20 19 20 21 22
23 23 25 25 25 25 24 23 22 23 23 23 23 22 22 23 23 21 20 20 20 20 20 20 19 19 21 20 20 20 20 20 21
24 23 23 23 22 23 23 22 22 22 22 22 22 22 22 22 22 22 22 20 20 20 19 18 18 19 19 19 19 19 19 19 19
Height
690 694 695 699 703 708 713 720 726 732 738 744 749 754 759 763 767 772 776 779 783 785 786 789 792 795 798 800 803 806 808 809 809
687 686 688 692 696 702 707 714 719 724 730 737 743 749 755 759 763 767 770 774 778 780 783 785 787 790 793 796 798 800 802 804 805
682 678 682 688 691 696 702 707 713 721 725 732 738 745 750 754 758 762 766 770 772 776 779 782 783 786 788 790 792 795 797 799 800
677 675 679 681 686 691 698 704 711 718 724 730 737 742 747 751 755 759 763 766 769 771 775 777 780 781 784 786 788 790 792 793 796
673 671 676 681 685 690 696 702 708 714 720 727 732 739 743 747 751 755 758 761 764 767 769 772 775 777 779 781 783 786 788 790 791
674 673 676 680 685 689 693 699 705 711 718 723 730 735 739 743 747 750 754 758 760 763 766 769 771 773 775 777 779 782 784 786 787
675 673 676 681 686 689 693 698 703 709 715 721 727 731 736 739 743 747 751 754 758 761 763 766 769 771 772 774 776 778 780 782 783
677 677 678 683 686 688 692 698 703 708 713 719 724 728 732 735 739 743 747 751 754 757 760 762 764 767 769 770 771 772 774 777 779
680 678 676 678 681 684 689 695 702 708 712 717 723 726 730 734 738 742 744 746 749 752 755 758 761 763 765 767 767 768 770 772 774
680 679 678 679 679 682 685 691 698 706 711 716 721 726 729 733 736 738 740 743 747 750 752 755 757 759 760 762 765 768 769 771 773
680 677 679 678 682 683 684 689 696 703 709 715 720 724 729 731 734 736 739 743 746 750 753 754 756 758 760 761 761 763 766 768 771
678 675 677 677 680 681 683 688 695 701 707 712 718 723 727 730 732 736 739 742 744 747 751 753 755 755 757 759 761 760 760 761 765
675 677 678 677 679 677 683 689 694 700 704 709 714 718 722 725 728 732 736 738 742 746 749 753 756 758 757 757 757 759 762 762 760
675 676 675 680 681 684 689 691 694 698 703 706 709 713 717 721 723 727 732 735 740 744 749 753 756 755 755 757 755 755 756 759 760
671 676 676 682 685 689 692 694 697 701 704 704 705 707 712 716 720 724 727 730 735 737 737 742 746 753 753 756 753 755 756 757 757
675 679 682 682 688 693 697 699 701 703 706 706 706 710 714 717 719 722 726 729 731 734 734 736 737 744 744 744 749 753 755 755 755
672 679 683 686 691 697 700 702 704 706 708 709 710 712 714 716 718 720 722 724 727 729 729 731 733 738 740 743 741 740 743 750 750
678 683 685 689 694 698 701 703 706 707 709 710 711 713 716 717 718 719 720 722 723 725 728 730 732 733 735 736 735 743 746 745 745
680 685 690 693 697 701 703 705 707 709 710 711 712 714 717 718 718 719 720 722 724 726 728 729 729 731 732 733 736 738 737 736 736
684 691 692 696 700 702 704 706 708 710 711 713 714 715 716 717 718 719 720 721 722 723 724 725 728 729 730 731 732 732 731 731 732
Wind_Speed
18 18 18 18 19 19 28 29 35 32 35 34 36 35 35 35 36 34 29 28 27 23 27 30 26 25 29 30 28 28 24 21 20
15 16 18 18 16 21 25 27 31 35 35 34 34 35 31 29 32 33 34 33 29 25 26 25 22 26 25 28 33 32 27 21 23
16 15 14 15 15 16 23 28 32 32 33 33 33 30 30 31 31 29 26 21 21 24 26 25 26 22 21 21 21 21 22 21 20
12 9 11 16 9 18 26 28 29 28 29 29 30 30 30 26 25 23 22 21 20 22 20 20 21 18 20 20 19 17 18 18 19
9 13 11 10 10 17 23 28 30 30 29 31 32 29 22 25 23 19 18 19 19 19 19 20 20 19 19 18 19 18 18 18 18
10 10 10 9 10 9 14 23 29 29 28 26 28 25 24 23 24 20 18 15 18 17 17 19 20 19 18 17 17 18 18 17 15
8 10 10 9 10 10 14 22 28 29 28 25 25 23 24 24 25 21 19 17 17 18 18 20 20 19 18 18 17 17 17 16 15
9 9 9 9 9 10 10 19 24 28 27 24 19 27 24 25 25 22 20 20 19 20 20 21 21 20 20 19 19 19 18 17 14
9 10 10 9 12 13 12 19 23 26 25 23 19 24 24 22 25 21 21 23 25 24 22 22 21 20 21 21 20 19 18 18 18
7 8 8 7 13 14 16 22 28 24 21 21 20 17 21 20 26 24 24 25 26 24 23 24 23 23 22 21 20 17 16 21 21
6 7 8 7 4 8 20 27 27 25 20 20 19 16 16 17 24 21 20 22 25 22 23 23 23 23 21 20 20 18 17 22 21
7 6 5 4 5 17 22 27 28 26 22 21 20 16 16 13 19 19 19 18 22 24 23 21 25 20 19 19 20 19 17 24 20
8 7 4 8 15 16 23 23 28 26 23 24 23 22 22 20 19 20 19 21 20 22 21 22 21 21 22 21 21 20 23 23 21
7 8 14 22 24 20 24 15 25 23 24 23 27 25 24 23 22 22 22 21 21 20 18 13 17 20 21 22 22 24 24 21 19
9 8 13 22 19 20 24 22 20 17 7 14 24 25 25 23 23 23 24 24 22 16 14 12 10 14 13 18 23 25 22 20 20
9 9 10 21 20 21 18 18 18 19 14 13 8 14 15 13 15 14 14 13 12 19 22 19 19 16 17 16 12 19 25 23 22
10 8 10 17 19 17 15 16 17 13 12 12 12 11 9 6 4 4 5 6 12 21 24 22 15 18 12 13 11 21 21 22 25
8 9 18 18 16 15 13 14 12 11 11 9 12 13 9 7 8 7 9 10 17 20 20 15 16 16 22 19 14 18 14 15 22
10 10 16 15 12 14 17 18 14 12 10 9 9 11 10 8 5 10 13 12 8 10 11 14 16 21 18 16 15 15 17 18 20
18 17 19 18 18 16 15 15 14 11 10 7 6 6 5 6 5 6 6 12 10 7 7 9 12 14 14 14 17 17 19 17 15
Wind_Direction
168 172 176 182 186 185 185 188 186 186 190 193 196 200 207 213 217 219 223 231 231 223 221 226 228 230 226 226 226 230 253 260 239
177 170 178 183 181 186 186 186 183 188 187 193 194 200 203 208 217 224 227 233 233 229 228 230 230 229 227 235 240 247 250 244 239
187 183 172 171 180 176 175 178 186 182 190 185 190 194 202 210 215 225 233 233 231 226 229 230 238 224 237 235 233 241 237 239 236
184 175 156 166 160 152 160 168 167 170 181 175 181 190 204 206 216 225 230 228 224 224 227 229 229 227 232 233 238 236 238 235 242
113 119 121 133 147 145 155 155 162 166 166 176 183 188 196 204 211 210 213 215 219 221 217 218 217 225 227 237 233 237 240 240 251
143 137 134 127 124 139 143 151 161 170 169 171 178 187 196 200 198 198 207 218 218 213 209 212 214 217 227 229 233 237 238 242 249
156 146 147 139 139 141 142 150 157 163 168 173 181 184 187 190 198 199 202 200 211 206 214 209 214 221 226 227 226 233 239 238 237
143 136 145 146 152 149 143 147 157 164 167 176 184 183 188 191 195 197 199 201 204 212 215 215 218 219 222 223 224 224 222 221 224
150 166 176 157 163 154 151 156 162 169 173 178 191 188 190 195 189 190 200 205 204 207 213 220 216 216 219 226 224 227 225 216 206
107 103 92 138 161 159 155 158 166 169 173 182 192 194 189 188 189 196 202 211 205 209 212 209 214 216 214 222 230 232 246 224 210
52 84 74 64 136 165 160 163 170 173 175 179 185 184 187 190 193 195 196 201 207 214 217 218 223 220 219 225 226 223 239 209 213
140 83 74 66 26 179 166 161 169 172 173 171 179 181 194 197 205 211 216 213 213 216 219 220 220 221 220 223 229 229 214 196 201
112 105 101 96 58 108 151 166 171 167 170 174 180 193 203 210 214 212 213 215 212 212 220 229 238 242 242 237 236 229 214 211 215
127 118 89 85 76 68 63 114 164 162 171 178 195 203 204 204 211 210 215 218 220 222 234 255 270 270 273 259 242 229 214 223 228
109 99 91 85 74 65 58 63 88 76 87 214 207 207 202 204 211 214 219 220 223 216 178 206 222 269 271 276 282 257 229 227 230
120 104 87 103 95 81 66 63 69 67 47 51 77 206 207 208 215 221 232 246 221 181 188 201 201 226 230 229 243 282 267 252 239
107 108 111 99 112 105 90 85 73 66 58 55 69 81 96 116 134 174 207 205 197 200 192 197 204 229 218 192 184 232 259 266 248
94 89 93 93 102 112 112 102 85 76 61 60 71 80 85 115 136 152 167 187 192 204 207 224 223 232 220 205 221 240 269 278 271
73 84 112 106 98 107 114 110 101 88 72 63 63 62 59 60 93 173 171 183 212 235 251 263 249 243 235 229 239 264 278 287 288
97 81 80 86 82 80 109 111 103 95 87 79 60 54 41 46 61 69 144 191 188 198 222 216 213 219 236 257 266 275 277 273 267